ANZ102 YSSY-NZAA

Flight info

Callsign ANZ102
Flight time 2h 16m
Altitude 37000
Route EVONN L521 LUNBI
Aircraft B77W/H-SDE1E2E3FGHIJ2J3J4J5M1RWXY/LB1D1

Departure

Time 2026-05-07 19:14
Airport Sydney Kingsford Smith International Airport (YSSY)

Arrival

Time 2026-05-07 21:30
Airport Auckland International Airport (NZAA)
Time Latitude Longitude Altitude Speed Heading
2026-05-07 18:52 -33.93950 151.16905 30 ft 0 kts 77°
2026-05-07 18:53 -33.93950 151.16904 30 ft 0 kts 76°
2026-05-07 18:53 -33.93095 151.17625 35 ft 0 kts 166°
2026-05-07 19:00 -33.93090 151.17624 35 ft 4 kts 166°
2026-05-07 19:00 -33.93064 151.17615 34 ft 4 kts 166°
2026-05-07 19:01 -33.93038 151.17610 35 ft 4 kts 187°
2026-05-07 19:01 -33.93017 151.17621 34 ft 4 kts 244°
2026-05-07 19:01 -33.93013 151.17651 34 ft 3 kts 278°
2026-05-07 19:01 -33.93014 151.17655 34 ft 0 kts 279°
2026-05-07 19:03 -33.93006 151.17605 32 ft 12 kts 280°
2026-05-07 19:03 -33.92985 151.17460 33 ft 18 kts 271°
2026-05-07 19:03 -33.93027 151.17417 28 ft 8 kts 181°
2026-05-07 19:03 -33.93152 151.17444 27 ft 25 kts 168°
2026-05-07 19:04 -33.93323 151.17488 29 ft 25 kts 168°
2026-05-07 19:04 -33.93518 151.17511 25 ft 32 kts 169°
2026-05-07 19:04 -33.93733 151.17567 24 ft 31 kts 167°
2026-05-07 19:04 -33.93861 151.17623 26 ft 10 kts 119°
2026-05-07 19:05 -33.93850 151.17748 27 ft 24 kts 73°
2026-05-07 19:05 -33.93802 151.17949 33 ft 25 kts 74°
2026-05-07 19:05 -33.93753 151.18153 35 ft 27 kts 75°
2026-05-07 19:05 -33.93700 151.18375 35 ft 28 kts 74°
2026-05-07 19:06 -33.93649 151.18594 35 ft 28 kts 73°
2026-05-07 19:06 -33.93630 151.18932 30 ft 15 kts 147°
2026-05-07 19:06 -33.93748 151.18962 30 ft 11 kts 200°
2026-05-07 19:07 -33.93770 151.18920 31 ft 0 kts 253°
2026-05-07 19:13 -33.93770 151.18919 31 ft 2 kts 253°
2026-05-07 19:13 -33.93822 151.18702 30 ft 66 kts 255°
2026-05-07 19:13 -33.94020 151.17864 28 ft 140 kts 254°
2026-05-07 19:13 -33.94306 151.16547 309 ft 169 kts 255°
2026-05-07 19:14 -33.94968 151.15415 1157 ft 161 kts 212°
2026-05-07 19:14 -33.96071 151.15313 2027 ft 176 kts 168°
2026-05-07 19:14 -33.97071 151.16354 2373 ft 215 kts 124°
2026-05-07 19:14 -33.97439 151.18242 2588 ft 249 kts 97°
2026-05-07 19:15 -33.97511 151.20411 3010 ft 269 kts 96°
2026-05-07 19:15 -33.97643 151.22684 3968 ft 269 kts 100°
2026-05-07 19:15 -33.97888 151.24904 4909 ft 270 kts 105°
2026-05-07 19:15 -33.98239 151.27126 5790 ft 272 kts 108°
2026-05-07 19:16 -33.98680 151.29369 6631 ft 276 kts 110°
2026-05-07 19:16 -33.99189 151.31625 7381 ft 282 kts 112°
2026-05-07 19:16 -33.99754 151.33915 8132 ft 289 kts 114°
2026-05-07 19:16 -34.00366 151.36250 8871 ft 295 kts 115°
2026-05-07 19:17 -34.01009 151.38615 9668 ft 299 kts 115°
2026-05-07 19:17 -34.01680 151.41023 10328 ft 308 kts 116°
2026-05-07 19:17 -34.02405 151.43557 10605 ft 333 kts 116°
2026-05-07 19:17 -34.03200 151.46300 10802 ft 360 kts 115°
2026-05-07 19:18 -34.04056 151.49249 11069 ft 383 kts 115°
2026-05-07 19:18 -34.04936 151.52300 11720 ft 396 kts 115°
2026-05-07 19:18 -34.05847 151.55472 12566 ft 404 kts 115°
2026-05-07 19:18 -34.06787 151.58745 13535 ft 411 kts 116°
2026-05-07 19:19 -34.07720 151.61988 14410 ft 418 kts 116°
2026-05-07 19:19 -34.08682 151.65330 15268 ft 425 kts 116°
2026-05-07 19:19 -34.09659 151.68720 16130 ft 431 kts 116°
2026-05-07 19:19 -34.10651 151.72165 17009 ft 437 kts 116°
2026-05-07 19:20 -34.11653 151.75652 17885 ft 442 kts 116°
2026-05-07 19:20 -34.12669 151.79188 18699 ft 449 kts 116°
2026-05-07 19:20 -34.13697 151.82769 19398 ft 455 kts 116°
2026-05-07 19:20 -34.14739 151.86405 20119 ft 461 kts 116°
2026-05-07 19:21 -34.15793 151.90088 20832 ft 467 kts 116°
2026-05-07 19:21 -34.16857 151.93815 21555 ft 473 kts 116°
2026-05-07 19:21 -34.17924 151.97553 22197 ft 480 kts 116°
2026-05-07 19:21 -34.19021 152.01396 22848 ft 486 kts 116°
2026-05-07 19:22 -34.20131 152.05279 23525 ft 491 kts 116°
2026-05-07 19:22 -34.21268 152.09196 24096 ft 496 kts 116°
2026-05-07 19:22 -34.22425 152.13149 24558 ft 503 kts 116°
2026-05-07 19:22 -34.23604 152.17169 25020 ft 510 kts 116°
2026-05-07 19:23 -34.24794 152.21239 25492 ft 517 kts 115°
2026-05-07 19:23 -34.25995 152.25364 25956 ft 523 kts 115°
2026-05-07 19:23 -34.27193 152.29492 26406 ft 529 kts 115°
2026-05-07 19:23 -34.28411 152.33703 26849 ft 535 kts 115°
2026-05-07 19:24 -34.29645 152.37977 27282 ft 540 kts 114°
2026-05-07 19:24 -34.30889 152.42293 27713 ft 546 kts 114°
2026-05-07 19:24 -34.32145 152.46658 28128 ft 552 kts 114°
2026-05-07 19:24 -34.33412 152.51066 28538 ft 557 kts 114°
2026-05-07 19:25 -34.34688 152.55513 28880 ft 564 kts 114°
2026-05-07 19:25 -34.35981 152.60021 29150 ft 570 kts 114°
2026-05-07 19:25 -34.37286 152.64582 29500 ft 575 kts 113°
2026-05-07 19:25 -34.38598 152.69177 29872 ft 578 kts 113°
2026-05-07 19:26 -34.39913 152.73793 30201 ft 582 kts 113°
2026-05-07 19:26 -34.41238 152.78447 30471 ft 585 kts 113°
2026-05-07 19:26 -34.42564 152.83112 30768 ft 587 kts 112°
2026-05-07 19:26 -34.43895 152.87803 31008 ft 590 kts 112°
2026-05-07 19:27 -34.44779 152.90922 31225 ft 591 kts 112°
2026-05-07 19:27 -34.46544 152.97166 31766 ft 589 kts 112°
2026-05-07 19:27 -34.47800 153.01620 32190 ft 587 kts 112°
2026-05-07 19:27 -34.49117 153.06293 32613 ft 585 kts 112°
2026-05-07 19:28 -34.50431 153.10960 33025 ft 584 kts 112°
2026-05-07 19:28 -34.51300 153.14052 33296 ft 584 kts 112°
2026-05-07 19:28 -34.52609 153.18710 33687 ft 583 kts 112°
2026-05-07 19:28 -34.53912 153.23359 34091 ft 581 kts 112°
2026-05-07 19:29 -34.55208 153.27992 34469 ft 579 kts 112°
2026-05-07 19:29 -34.56501 153.32619 34837 ft 577 kts 112°
2026-05-07 19:29 -34.57793 153.37250 35192 ft 576 kts 112°
2026-05-07 19:29 -34.59075 153.41856 35499 ft 575 kts 112°
2026-05-07 19:30 -34.60354 153.46455 35845 ft 575 kts 112°
2026-05-07 19:30 -34.61615 153.50998 36139 ft 574 kts 112°
2026-05-07 19:30 -34.62886 153.55585 36452 ft 573 kts 112°
2026-05-07 19:30 -34.64155 153.60169 36777 ft 572 kts 112°
2026-05-07 19:31 -34.65423 153.64761 36933 ft 574 kts 112°
2026-05-07 19:31 -34.66695 153.69370 36973 ft 577 kts 111°
2026-05-07 19:31 -34.69234 153.78604 36967 ft 573 kts 111°
2026-05-07 19:32 -34.71742 153.87765 36966 ft 569 kts 111°
2026-05-07 19:32 -34.74226 153.96856 36971 ft 568 kts 111°
2026-05-07 19:33 -34.76650 154.05751 36998 ft 569 kts 111°
2026-05-07 19:33 -34.79139 154.14922 36969 ft 570 kts 111°
2026-05-07 19:34 -34.81605 154.24040 36958 ft 571 kts 111°
2026-05-07 19:34 -34.84083 154.33233 36956 ft 571 kts 111°
2026-05-07 19:35 -34.86555 154.42435 36956 ft 572 kts 111°
2026-05-07 19:35 -34.89020 154.51644 36944 ft 572 kts 110°
2026-05-07 19:36 -34.91483 154.60875 36941 ft 572 kts 110°
2026-05-07 19:36 -34.93936 154.70101 36954 ft 572 kts 110°
2026-05-07 19:37 -34.96371 154.79290 36936 ft 573 kts 110°
2026-05-07 19:37 -34.98818 154.88557 36928 ft 573 kts 110°
2026-05-07 19:38 -35.01251 154.97802 36929 ft 572 kts 110°
2026-05-07 19:38 -35.03617 155.06821 36923 ft 573 kts 110°
2026-05-07 19:39 -35.06024 155.16024 36921 ft 573 kts 110°
2026-05-07 19:39 -35.08440 155.25295 36901 ft 574 kts 110°
2026-05-07 19:40 -35.10853 155.34588 36904 ft 573 kts 110°
2026-05-07 19:40 -35.13256 155.43879 36914 ft 573 kts 110°
2026-05-07 19:41 -35.15649 155.53161 36900 ft 572 kts 110°
2026-05-07 19:41 -35.18033 155.62441 36909 ft 572 kts 109°
2026-05-07 19:42 -35.20399 155.71684 36897 ft 572 kts 109°
2026-05-07 19:42 -35.22767 155.80969 36887 ft 572 kts 109°
2026-05-07 19:43 -35.25132 155.90275 36884 ft 572 kts 109°
2026-05-07 19:43 -35.27489 155.99580 36877 ft 572 kts 109°
2026-05-07 19:44 -35.29777 156.08647 36877 ft 571 kts 109°
2026-05-07 19:44 -35.32115 156.17946 36873 ft 571 kts 109°
2026-05-07 19:45 -35.34448 156.27261 36887 ft 572 kts 109°
2026-05-07 19:45 -35.36776 156.36586 36873 ft 572 kts 109°
2026-05-07 19:46 -35.39079 156.45844 36863 ft 572 kts 108°
2026-05-07 19:46 -35.41393 156.55186 36858 ft 572 kts 108°
2026-05-07 19:47 -35.43701 156.64531 36854 ft 572 kts 108°
2026-05-07 19:47 -35.45997 156.73869 36851 ft 572 kts 108°
2026-05-07 19:48 -35.48288 156.83216 36850 ft 571 kts 108°
2026-05-07 19:48 -35.50558 156.92513 36847 ft 571 kts 108°
2026-05-07 19:49 -35.52770 157.01605 36839 ft 571 kts 108°
2026-05-07 19:49 -35.55036 157.10955 36836 ft 571 kts 108°
2026-05-07 19:50 -35.57294 157.20309 36833 ft 571 kts 108°
2026-05-07 19:50 -35.59545 157.29668 36827 ft 571 kts 108°
2026-05-07 19:51 -35.61787 157.39024 36818 ft 571 kts 108°
2026-05-07 19:51 -35.64025 157.48397 36810 ft 571 kts 108°
2026-05-07 19:52 -35.66238 157.57702 36807 ft 570 kts 107°
2026-05-07 19:52 -35.68455 157.67059 36805 ft 570 kts 107°
2026-05-07 19:53 -35.70664 157.76421 36793 ft 569 kts 107°
2026-05-07 19:53 -35.72864 157.85778 36786 ft 569 kts 107°
2026-05-07 19:54 -35.75056 157.95140 36785 ft 568 kts 107°
2026-05-07 19:54 -35.77178 158.04231 36776 ft 567 kts 107°
2026-05-07 19:55 -35.79124 158.13578 36773 ft 567 kts 103°
2026-05-07 19:55 -35.80738 158.23055 36757 ft 567 kts 102°
2026-05-07 19:56 -35.82309 158.32570 36760 ft 566 kts 102°
2026-05-07 19:56 -35.83909 158.42109 36761 ft 566 kts 102°
2026-05-07 19:57 -35.85522 158.51614 36754 ft 566 kts 102°
2026-05-07 19:57 -35.87123 158.61068 36745 ft 567 kts 102°
2026-05-07 19:58 -35.88724 158.70589 36745 ft 567 kts 102°
2026-05-07 19:58 -35.90316 158.80124 36740 ft 567 kts 102°
2026-05-07 19:59 -35.91904 158.89683 36740 ft 568 kts 102°
2026-05-07 19:59 -35.93483 158.99240 36739 ft 570 kts 102°
2026-05-07 20:00 -35.95027 159.08627 36742 ft 577 kts 102°
2026-05-07 20:00 -35.96615 159.18331 36737 ft 583 kts 102°
2026-05-07 20:01 -35.98218 159.28185 36724 ft 586 kts 102°
2026-05-07 20:01 -35.99816 159.38056 36712 ft 586 kts 102°
2026-05-07 20:02 -36.01405 159.47930 36707 ft 586 kts 102°
2026-05-07 20:02 -36.02986 159.57807 36699 ft 585 kts 102°
2026-05-07 20:03 -36.04544 159.67595 36683 ft 584 kts 102°
2026-05-07 20:03 -36.06102 159.77440 36691 ft 583 kts 101°
2026-05-07 20:04 -36.07650 159.87272 36674 ft 582 kts 101°
2026-05-07 20:04 -36.09186 159.97083 36681 ft 579 kts 101°
2026-05-07 20:05 -36.10657 160.06533 36680 ft 578 kts 101°
2026-05-07 20:05 -36.12167 160.16287 36676 ft 577 kts 101°
2026-05-07 20:06 -36.13668 160.26037 36675 ft 575 kts 101°
2026-05-07 20:06 -36.15156 160.35756 36659 ft 574 kts 101°
2026-05-07 20:07 -36.16635 160.45474 36659 ft 574 kts 101°
2026-05-07 20:07 -36.18096 160.55123 36651 ft 573 kts 101°
2026-05-07 20:08 -36.19558 160.64840 36647 ft 574 kts 101°
2026-05-07 20:08 -36.21012 160.74555 36642 ft 574 kts 101°
2026-05-07 20:09 -36.22459 160.84284 36641 ft 575 kts 101°
2026-05-07 20:10 -36.24619 160.98905 36640 ft 575 kts 100°
2026-05-07 20:10 -36.26010 161.08393 36626 ft 575 kts 100°
2026-05-07 20:11 -36.27422 161.18082 36627 ft 574 kts 100°
2026-05-07 20:11 -36.28834 161.27822 36630 ft 574 kts 99°
2026-05-07 20:12 -36.30238 161.37568 36621 ft 573 kts 99°
2026-05-07 20:12 -36.31629 161.47285 36625 ft 572 kts 99°
2026-05-07 20:13 -36.33013 161.57011 36626 ft 572 kts 99°
2026-05-07 20:13 -36.34381 161.66672 36623 ft 571 kts 99°
2026-05-07 20:14 -36.35747 161.76390 36624 ft 571 kts 99°
2026-05-07 20:14 -36.37105 161.86114 36624 ft 571 kts 98°
2026-05-07 20:15 -36.38227 161.94184 36623 ft 571 kts 98°
2026-05-07 20:15 -36.39753 162.05231 36622 ft 571 kts 98°
2026-05-07 20:16 -36.41086 162.14952 36618 ft 571 kts 98°
2026-05-07 20:16 -36.42197 162.23095 36620 ft 571 kts 98°
2026-05-07 20:17 -36.43508 162.32762 36620 ft 571 kts 98°
2026-05-07 20:17 -36.44819 162.42485 36610 ft 570 kts 98°
2026-05-07 20:18 -36.46121 162.52203 36612 ft 570 kts 98°
2026-05-07 20:18 -36.47415 162.61928 36586 ft 569 kts 97°
2026-05-07 20:19 -36.48693 162.71595 36605 ft 569 kts 97°
2026-05-07 20:19 -36.49967 162.81297 36613 ft 568 kts 97°
2026-05-07 20:20 -36.51233 162.91002 36610 ft 568 kts 97°
2026-05-07 20:20 -36.52451 163.00381 36611 ft 567 kts 96°
2026-05-07 20:21 -36.53695 163.10056 36610 ft 566 kts 96°
2026-05-07 20:21 -36.54929 163.19732 36616 ft 566 kts 96°
2026-05-07 20:22 -36.56156 163.29416 36615 ft 565 kts 96°
2026-05-07 20:22 -36.57366 163.39010 36609 ft 564 kts 95°
2026-05-07 20:23 -36.58572 163.48662 36612 ft 564 kts 95°
2026-05-07 20:23 -36.59771 163.58314 36614 ft 564 kts 95°
2026-05-07 20:24 -36.60966 163.67991 36604 ft 564 kts 94°
2026-05-07 20:24 -36.62141 163.77582 36618 ft 564 kts 94°
2026-05-07 20:25 -36.63317 163.87245 36616 ft 564 kts 94°
2026-05-07 20:25 -36.64485 163.96911 36609 ft 564 kts 94°
2026-05-07 20:26 -36.65619 164.06344 36606 ft 564 kts 93°
2026-05-07 20:26 -36.66769 164.15995 36606 ft 564 kts 93°
2026-05-07 20:27 -36.67915 164.25674 36604 ft 564 kts 93°
2026-05-07 20:27 -36.69042 164.35273 36605 ft 564 kts 93°
2026-05-07 20:28 -36.70171 164.44932 36612 ft 561 kts 92°
2026-05-07 20:28 -36.71288 164.54570 36606 ft 561 kts 92°
2026-05-07 20:29 -36.72393 164.64189 36595 ft 560 kts 92°
2026-05-07 20:29 -36.73483 164.73734 36583 ft 559 kts 92°
2026-05-07 20:30 -36.74572 164.83341 36601 ft 558 kts 92°
2026-05-07 20:30 -36.75650 164.92926 36605 ft 558 kts 92°
2026-05-07 20:31 -36.76693 165.02265 36606 ft 558 kts 92°
2026-05-07 20:31 -36.77758 165.11871 36579 ft 557 kts 91°
2026-05-07 20:32 -36.78804 165.21371 36601 ft 556 kts 91°
2026-05-07 20:32 -36.79846 165.30920 36596 ft 555 kts 91°
2026-05-07 20:33 -36.80882 165.40481 36625 ft 556 kts 91°
2026-05-07 20:33 -36.81911 165.50057 36625 ft 558 kts 91°
2026-05-07 20:34 -36.82936 165.59676 36624 ft 559 kts 91°
2026-05-07 20:34 -36.83950 165.69247 36619 ft 560 kts 91°
2026-05-07 20:35 -36.84963 165.78886 36563 ft 560 kts 91°
2026-05-07 20:35 -36.85969 165.88524 36618 ft 559 kts 90°
2026-05-07 20:36 -36.86966 165.98169 36626 ft 559 kts 90°
2026-05-07 20:36 -36.87926 166.07535 36635 ft 559 kts 90°
2026-05-07 20:37 -36.88906 166.17174 36608 ft 558 kts 90°
2026-05-07 20:37 -36.89878 166.26798 36637 ft 557 kts 90°
2026-05-07 20:38 -36.90833 166.36338 36641 ft 556 kts 90°
2026-05-07 20:38 -36.91784 166.45928 36638 ft 556 kts 90°
2026-05-07 20:39 -36.92728 166.55513 36625 ft 555 kts 90°
2026-05-07 20:39 -36.93662 166.65093 36649 ft 555 kts 90°
2026-05-07 20:40 -36.94590 166.74687 36651 ft 555 kts 90°
2026-05-07 20:40 -36.95505 166.84228 36657 ft 556 kts 90°
2026-05-07 20:41 -36.96418 166.93829 36665 ft 556 kts 90°
2026-05-07 20:41 -36.97300 167.03194 36678 ft 558 kts 90°
2026-05-07 20:42 -36.98204 167.12873 36665 ft 560 kts 90°
2026-05-07 20:42 -36.99103 167.22559 36671 ft 560 kts 89°
2026-05-07 20:43 -36.99993 167.32253 36671 ft 561 kts 90°
2026-05-07 20:43 -37.00868 167.41866 36695 ft 562 kts 90°
2026-05-07 20:44 -37.01744 167.51601 36679 ft 564 kts 90°
2026-05-07 20:44 -37.02617 167.61364 36672 ft 564 kts 90°
2026-05-07 20:45 -37.03483 167.71152 36689 ft 565 kts 90°
2026-05-07 20:45 -37.04341 167.80949 36711 ft 567 kts 90°
2026-05-07 20:46 -37.05194 167.90789 36729 ft 569 kts 90°
2026-05-07 20:46 -37.06014 168.00315 36680 ft 568 kts 90°
2026-05-07 20:47 -37.06851 168.10122 36714 ft 565 kts 90°
2026-05-07 20:47 -37.07676 168.19913 36726 ft 564 kts 90°
2026-05-07 20:48 -37.08491 168.29687 36738 ft 563 kts 90°
2026-05-07 20:48 -37.09295 168.39436 36734 ft 562 kts 90°
2026-05-07 20:49 -37.10092 168.49186 36745 ft 563 kts 90°
2026-05-07 20:49 -37.10877 168.58890 36754 ft 564 kts 90°
2026-05-07 20:50 -37.11661 168.68671 36755 ft 564 kts 90°
2026-05-07 20:50 -37.12436 168.78456 36760 ft 563 kts 90°
2026-05-07 20:51 -37.13204 168.88242 36768 ft 563 kts 90°
2026-05-07 20:51 -37.13962 168.98013 36766 ft 563 kts 90°
2026-05-07 20:52 -37.14693 169.07536 36778 ft 563 kts 90°
2026-05-07 20:52 -37.15436 169.17314 36784 ft 563 kts 90°
2026-05-07 20:53 -37.16166 169.27034 36784 ft 562 kts 90°
2026-05-07 20:53 -37.16891 169.36806 36794 ft 562 kts 90°
2026-05-07 20:54 -37.17607 169.46563 36788 ft 562 kts 90°
2026-05-07 20:54 -37.18316 169.56322 36801 ft 562 kts 90°
2026-05-07 20:55 -37.19013 169.66030 36812 ft 562 kts 90°
2026-05-07 20:55 -37.19705 169.75799 36817 ft 562 kts 90°
2026-05-07 20:56 -37.20390 169.85567 36824 ft 563 kts 90°
2026-05-07 20:56 -37.21069 169.95391 36827 ft 566 kts 90°
2026-05-07 20:57 -37.21725 170.04980 36850 ft 568 kts 90°
2026-05-07 20:57 -37.22394 170.14858 36837 ft 569 kts 90°
2026-05-07 20:58 -37.23055 170.24756 36856 ft 570 kts 90°
2026-05-07 20:58 -37.23705 170.34628 36867 ft 572 kts 90°
2026-05-07 20:59 -37.24355 170.44608 36860 ft 573 kts 90°
2026-05-07 20:59 -37.24996 170.54582 36856 ft 573 kts 90°
2026-05-07 21:00 -37.25629 170.64554 36877 ft 573 kts 90°
2026-05-07 21:00 -37.25777 170.74515 36880 ft 568 kts 83°
2026-05-07 21:01 -37.25354 170.84401 36908 ft 567 kts 81°
2026-05-07 21:01 -37.24911 170.94286 36878 ft 567 kts 83°
2026-05-07 21:02 -37.24586 171.03858 36900 ft 567 kts 83°
2026-05-07 21:02 -37.24298 171.13756 36912 ft 567 kts 83°
2026-05-07 21:03 -37.24054 171.22046 36916 ft 568 kts 83°
2026-05-07 21:03 -37.23746 171.31880 36904 ft 567 kts 83°
2026-05-07 21:04 -37.23422 171.41760 36929 ft 566 kts 83°
2026-05-07 21:04 -37.23089 171.51641 36937 ft 566 kts 83°
2026-05-07 21:05 -37.22749 171.61488 36936 ft 565 kts 83°
2026-05-07 21:05 -37.22402 171.71353 36951 ft 563 kts 84°
2026-05-07 21:06 -37.22049 171.81160 36947 ft 562 kts 84°
2026-05-07 21:06 -37.21688 171.90940 36954 ft 560 kts 84°
2026-05-07 21:07 -37.21330 172.00400 36974 ft 559 kts 83°
2026-05-07 21:07 -37.20957 172.10084 36948 ft 558 kts 84°
2026-05-07 21:08 -37.20574 172.19817 36976 ft 558 kts 84°
2026-05-07 21:08 -37.20187 172.29491 36882 ft 543 kts 84°
2026-05-07 21:08 -37.20000 172.34171 36471 ft 535 kts 83°
2026-05-07 21:09 -37.19809 172.38831 35707 ft 535 kts 83°
2026-05-07 21:09 -37.19613 172.43504 34815 ft 537 kts 83°
2026-05-07 21:09 -37.19415 172.48148 33916 ft 541 kts 83°
2026-05-07 21:09 -37.19212 172.52870 32884 ft 543 kts 83°
2026-05-07 21:10 -37.19008 172.57606 31859 ft 545 kts 83°
2026-05-07 21:10 -37.18802 172.62371 30878 ft 546 kts 83°
2026-05-07 21:10 -37.18597 172.67122 30149 ft 542 kts 83°
2026-05-07 21:10 -37.18394 172.71812 29522 ft 534 kts 83°
2026-05-07 21:11 -37.18195 172.76367 28975 ft 525 kts 82°
2026-05-07 21:11 -37.17994 172.80901 28402 ft 517 kts 82°
2026-05-07 21:11 -37.17582 172.89933 26449 ft 520 kts 82°
2026-05-07 21:12 -37.17372 172.94452 25599 ft 518 kts 83°
2026-05-07 21:12 -37.17162 172.98958 24786 ft 515 kts 83°
2026-05-07 21:12 -37.16966 173.03182 24106 ft 510 kts 83°
2026-05-07 21:12 -37.16763 173.07550 23484 ft 503 kts 83°
2026-05-07 21:13 -37.16558 173.11911 22824 ft 495 kts 83°
2026-05-07 21:13 -37.16357 173.16140 22147 ft 487 kts 83°
2026-05-07 21:13 -37.16154 173.20352 21505 ft 480 kts 83°
2026-05-07 21:13 -37.15953 173.24503 20859 ft 474 kts 83°
2026-05-07 21:14 -37.15752 173.28603 20217 ft 468 kts 83°
2026-05-07 21:14 -37.15552 173.32648 19603 ft 463 kts 83°
2026-05-07 21:14 -37.15354 173.36652 19001 ft 458 kts 83°
2026-05-07 21:14 -37.15157 173.40617 18412 ft 453 kts 83°
2026-05-07 21:15 -37.14960 173.44537 17763 ft 448 kts 83°
2026-05-07 21:15 -37.14750 173.48409 17164 ft 442 kts 82°
2026-05-07 21:15 -37.14525 173.52192 16588 ft 436 kts 82°
2026-05-07 21:15 -37.14294 173.55968 16035 ft 430 kts 81°
2026-05-07 21:16 -37.14067 173.59677 15527 ft 423 kts 81°
2026-05-07 21:16 -37.13844 173.63343 14954 ft 419 kts 81°
2026-05-07 21:16 -37.13625 173.66966 14387 ft 415 kts 81°
2026-05-07 21:16 -37.13407 173.70559 13902 ft 411 kts 81°
2026-05-07 21:17 -37.13207 173.73961 13641 ft 372 kts 81°
2026-05-07 21:17 -37.13022 173.77074 13101 ft 348 kts 80°
2026-05-07 21:17 -37.12839 173.80018 12247 ft 338 kts 80°
2026-05-07 21:17 -37.12649 173.82978 11521 ft 345 kts 81°
2026-05-07 21:18 -37.12460 173.85973 11109 ft 343 kts 81°
2026-05-07 21:18 -37.12275 173.88952 10701 ft 341 kts 80°
2026-05-07 21:18 -37.12092 173.91899 10461 ft 334 kts 81°
2026-05-07 21:18 -37.11914 173.94752 10320 ft 324 kts 81°
2026-05-07 21:19 -37.11740 173.97525 10186 ft 314 kts 80°
2026-05-07 21:19 -37.11576 174.00117 10069 ft 305 kts 80°
2026-05-07 21:19 -37.11411 174.02702 9896 ft 298 kts 80°
2026-05-07 21:19 -37.11245 174.05280 9554 ft 296 kts 80°
2026-05-07 21:20 -37.11079 174.07842 9252 ft 294 kts 80°
2026-05-07 21:20 -37.10915 174.10386 8943 ft 292 kts 80°
2026-05-07 21:20 -37.10752 174.12916 8619 ft 290 kts 80°
2026-05-07 21:20 -37.10590 174.15423 8307 ft 288 kts 80°
2026-05-07 21:21 -37.10432 174.17880 7995 ft 286 kts 80°
2026-05-07 21:21 -37.10272 174.20359 7687 ft 284 kts 80°
2026-05-07 21:21 -37.10112 174.22825 7380 ft 283 kts 80°
2026-05-07 21:21 -37.09953 174.25270 7103 ft 280 kts 80°
2026-05-07 21:22 -37.09795 174.27703 6795 ft 279 kts 79°
2026-05-07 21:22 -37.09636 174.30112 6460 ft 278 kts 81°
2026-05-07 21:22 -37.09477 174.32524 6136 ft 277 kts 81°
2026-05-07 21:22 -37.09317 174.34930 5826 ft 276 kts 80°
2026-05-07 21:23 -37.09160 174.37284 5521 ft 274 kts 80°
2026-05-07 21:23 -37.09006 174.39611 5193 ft 260 kts 79°
2026-05-07 21:23 -37.08856 174.41857 4920 ft 258 kts 79°
2026-05-07 21:23 -37.08705 174.44088 4624 ft 256 kts 79°
2026-05-07 21:24 -37.08554 174.46311 4337 ft 254 kts 78°
2026-05-07 21:24 -37.08408 174.48476 4228 ft 245 kts 78°
2026-05-07 21:24 -37.08269 174.50545 4106 ft 236 kts 78°
2026-05-07 21:24 -37.08131 174.52569 3907 ft 230 kts 77°
2026-05-07 21:25 -37.07833 174.54491 3639 ft 221 kts 66°
2026-05-07 21:25 -37.07365 174.56296 3410 ft 216 kts 64°
2026-05-07 21:25 -37.06870 174.58058 3166 ft 213 kts 64°
2026-05-07 21:25 -37.06399 174.59781 2894 ft 204 kts 63°
2026-05-07 21:26 -37.05951 174.61405 2606 ft 190 kts 63°
2026-05-07 21:26 -37.05544 174.62883 2365 ft 173 kts 63°
2026-05-07 21:26 -37.05172 174.64238 2153 ft 157 kts 62°
2026-05-07 21:26 -37.04844 174.65442 1949 ft 137 kts 61°
2026-05-07 21:27 -37.04534 174.66552 1795 ft 135 kts 60°
2026-05-07 21:27 -37.04222 174.67671 1585 ft 136 kts 63°
2026-05-07 21:27 -37.03915 174.68787 1401 ft 135 kts 63°
2026-05-07 21:27 -37.03610 174.69897 1218 ft 136 kts 63°
2026-05-07 21:28 -37.03297 174.71034 1048 ft 139 kts 63°
2026-05-07 21:28 -37.02987 174.72157 848 ft 134 kts 65°
2026-05-07 21:28 -37.02684 174.73262 686 ft 135 kts 65°
2026-05-07 21:28 -37.02372 174.74389 477 ft 139 kts 66°
2026-05-07 21:29 -37.02071 174.75518 308 ft 140 kts 65°
2026-05-07 21:29 -37.01749 174.76664 125 ft 138 kts 65°
2026-05-07 21:29 -37.01444 174.77776 31 ft 126 kts 65°
2026-05-07 21:29 -37.01193 174.78668 28 ft 87 kts 70°
2026-05-07 21:30 -37.01031 174.78994 30 ft 27 kts 42°
2026-05-07 21:30 -37.00957 174.79079 30 ft 13 kts 37°
2026-05-07 21:30 -37.00905 174.79062 29 ft 8 kts 288°
2026-05-07 21:30 -37.00910 174.78990 29 ft 9 kts 254°
2026-05-07 21:31 -37.00929 174.78915 29 ft 9 kts 251°
2026-05-07 21:31 -37.00950 174.78841 28 ft 9 kts 251°
2026-05-07 21:31 -37.00991 174.78695 32 ft 21 kts 251°
2026-05-07 21:31 -37.01038 174.78525 31 ft 21 kts 251°
2026-05-07 21:32 -37.01009 174.78385 31 ft 16 kts 328°
2026-05-07 21:32 -37.00898 174.78366 31 ft 16 kts
2026-05-07 21:32 -37.00803 174.78369 32 ft 3 kts 335°
2026-05-07 21:32 -37.00789 174.78350 31 ft 2 kts 298°
2026-05-07 21:33 -37.00767 174.78290 30 ft 6 kts 295°
2026-05-07 21:33 -37.00762 174.78277 30 ft 0 kts 297°